Dewpoint
58 58 58 58 58 57 57 57 57 57 57 56 56 56 56 56 56 56 56 55 55 55 54 53 53 54 53 53 53 53 53 54 54 54 54 54 55 55 55 53 53 54 54 54 54 54 53 52 52 52 53 53 53 53 54 54 55 55 56 56 56 57 59 60 58 56 58 61 61 61 62 63 62 64 64 64 64 64 62 65 65 64 63 62 60
57 57 57 57 56 56 57 57 56 56 56 56 56 55 56 56 56 55 55 54 54 54 53 54 53 53 52 50 51 51 52 52 53 54 53 53 54 55 54 53 53 52 53 52 53 53 53 52 51 52 52 52 52 52 52 53 54 54 54 55 55 56 59 60 56 58 57 60 60 60 60 62 61 63 62 62 62 63 63 64 65 64 64 63 63
56 56 56 56 56 56 56 56 56 56 56 56 55 55 55 55 55 55 54 54 53 53 53 53 52 50 50 51 51 51 51 51 53 52 52 52 51 53 52 52 52 52 52 51 51 52 52 51 51 51 52 52 52 52 52 53 53 54 54 54 55 56 56 58 57 56 55 56 58 57 57 58 58 59 61 62 63 63 63 63 63 63 64 64 63
55 55 55 55 55 56 56 56 56 56 55 55 55 55 55 55 54 54 54 54 53 53 51 50 51 51 50 50 50 50 51 50 51 51 51 51 50 50 50 51 51 51 51 50 50 51 51 50 50 50 51 50 50 51 51 52 52 52 53 52 53 53 53 54 53 53 52 51 53 51 54 56 57 58 58 59 62 62 62 63 64 63 63 63 63
54 54 55 55 55 55 56 55 55 55 55 55 55 55 54 54 53 53 53 53 53 53 52 50 51 50 49 48 50 50 50 49 49 49 50 51 50 50 50 50 50 50 50 50 51 50 50 50 49 49 49 48 48 48 50 50 49 50 51 51 51 52 52 51 51 51 50 49 48 49 49 49 50 51 52 54 58 60 60 61 62 62 63 63 63
53 53 54 54 54 55 55 55 54 54 54 54 54 54 54 53 53 53 52 52 52 52 51 51 51 48 49 50 50 49 49 50 50 49 49 50 51 51 50 50 50 49 49 49 50 50 50 50 49 48 47 47 47 47 48 48 48 48 49 50 50 51 51 50 50 49 49 48 48 47 48 48 47 48 49 50 52 52 53 56 59 60 61 62 62
52 53 54 54 53 54 54 54 54 54 54 54 54 53 52 53 51 51 51 51 51 50 50 49 50 50 49 50 49 48 48 48 49 49 49 49 49 48 49 49 48 49 48 48 49 49 49 49 49 49 48 47 47 47 46 46 46 46 47 48 49 50 49 48 48 48 47 47 46 46 45 46 47 46 47 49 50 51 51 51 54 58 59 60 61
52 52 53 53 53 53 53 54 54 53 53 52 52 53 52 52 51 51 50 51 50 48 49 49 50 49 49 48 48 48 47 46 45 46 47 48 48 48 47 48 48 48 49 47 48 48 48 48 48 49 49 47 48 47 47 46 45 44 45 46 47 48 48 47 47 46 45 45 44 44 44 44 44 45 47 47 47 48 50 51 51 54 55 59 61
51 52 52 52 53 53 53 53 53 52 52 52 51 51 51 51 51 50 50 50 50 49 49 48 47 47 46 47 46 47 47 45 45 44 44 45 45 46 45 45 45 46 46 45 44 44 46 47 47 47 50 49 48 46 46 46 45 44 44 44 45 46 46 46 45 44 44 44 43 44 43 43 43 43 44 44 45 48 49 51 50 52 54 56 59
51 51 51 51 52 52 52 53 52 52 51 51 51 51 50 51 50 50 49 49 49 49 48 48 46 46 45 45 46 47 45 45 43 41 42 44 46 43 44 43 43 44 44 44 43 42 41 42 45 50 50 49 47 44 43 43 45 45 44 44 44 44 44 44 44 43 43 42 42 42 42 41 42 43 43 44 45 47 48 49 49 50 52 53 56
51 50 50 51 51 51 51 51 51 50 51 51 51 49 49 50 50 49 49 49 49 48 48 47 46 45 44 44 44 45 44 42 40 39 39 40 46 44 42 42 42 43 43 42 42 41 41 40 42 45 47 48 51 44 43 41 41 41 42 43 44 45 43 42 43 43 42 42 41 41 41 41 41 42 43 43 44 46 46 47 48 49 49 52 52
50 50 50 50 50 50 50 50 49 50 50 49 49 49 49 49 49 49 49 49 48 48 48 47 46 45 45 43 44 44 44 40 38 38 39 38 40 44 42 41 41 41 42 43 42 42 41 41 41 44 45 45 45 46 47 43 41 40 40 40 40 39 40 44 43 42 43 41 41 42 41 41 40 40 41 42 43 45 46 46 46 47 49 51 52
49 49 49 49 49 50 49 48 48 48 48 48 48 48 48 48 48 48 48 48 48 47 46 46 45 44 44 42 43 43 43 38 37 38 38 38 38 41 39 41 39 39 41 42 42 42 41 40 40 42 43 46 44 42 43 48 43 42 42 42 42 41 38 38 40 45 43 41 41 41 42 41 40 41 42 42 44 45 45 44 45 45 47 51 52
49 49 49 49 49 49 48 47 47 47 48 48 48 47 47 47 48 48 47 47 47 46 46 45 44 43 42 41 42 43 42 39 37 37 38 37 37 40 41 41 40 38 39 40 41 42 42 40 39 39 41 42 41 40 42 46 42 42 41 41 41 42 41 39 39 39 42 41 40 40 42 44 41 43 44 43 43 43 43 43 44 44 44 48 53
48 48 48 48 48 48 47 47 47 47 47 47 48 47 47 47 46 46 46 46 45 44 45 45 44 43 41 40 40 42 43 37 37 37 37 37 37 41 44 43 40 40 39 38 39 40 41 41 39 38 39 40 40 38 40 44 43 42 42 41 39 41 43 43 42 42 41 42 42 42 43 45 45 45 44 43 43 44 44 44 44 44 44 45 45
47 47 47 47 47 47 47 47 47 47 46 47 47 46 46 46 46 46 45 44 44 43 43 43 42 42 41 40 39 39 41 36 36 36 36 36 38 42 42 42 41 40 39 37 37 38 39 40 39 38 38 39 38 36 37 42 43 42 41 41 39 39 43 46 42 42 46 46 45 45 45 47 42 47 45 44 43 44 43 43 44 43 42 42 42
46 47 47 46 46 46 46 46 47 46 46 46 45 46 45 44 44 44 44 44 43 43 44 43 42 41 40 39 38 38 39 38 36 36 36 36 40 42 41 39 40 40 40 38 36 37 37 38 38 38 38 37 36 35 35 40 43 42 41 41 40 38 37 48 42 40 40 40 40 39 39 38 40 40 39 40 43 44 43 41 41 41 40 40 41
46 46 46 46 46 46 46 46 46 46 45 44 44 44 44 43 42 42 42 42 40 41 42 41 41 40 40 39 37 36 37 39 36 36 36 36 38 43 39 40 40 38 38 39 38 37 38 42 40 36 37 37 35 34 35 42 41 42 42 39 38 37 36 37 41 50 40 38 37 38 37 37 38 39 39 40 40 43 43 42 42 41 40 40 40
46 46 46 46 45 45 45 45 45 45 44 44 44 43 43 42 42 42 40 40 40 39 39 40 40 40 40 40 42 37 36 38 36 35 36 36 39 42 36 37 38 38 37 36 37 37 36 37 40 37 37 37 34 34 35 38 41 40 40 39 37 37 41 38 37 36 37 37 39 40 39 39 41 40 44 40 40 43 43 43 42 40 39 40 40
45 46 46 46 45 45 45 45 44 44 43 44 44 42 41 41 41 40 39 37 37 37 37 39 40 40 41 41 42 41 38 37 38 35 36 36 36 42 39 37 36 36 35 34 35 36 35 35 35 34 34 34 34 34 34 35 41 38 38 37 37 36 41 37 38 38 36 36 38 39 39 38 39 38 39 40 42 43 43 42 42 41 40 39 39
46 46 45 45 44 44 44 44 44 43 43 42 41 41 40 40 40 39 38 39 39 39 39 38 36 35 35 35 35 38 40 39 39 35 36 36 36 37 41 41 38 35 35 33 33 33 34 33 34 35 34 34 34 34 34 34 35 37 37 37 38 41 40 38 40 38 36 37 38 37 37 37 37 37 36 37 39 40 41 42 42 41 40 39 38
46 45 45 44 44 44 44 44 44 43 42 42 42 41 41 41 40 39 38 40 40 39 39 37 35 34 35 35 36 35 37 40 38 36 35 35 35 35 39 40 41 36 35 33 32 34 34 33 33 35 34 34 34 34 34 34 34 35 39 33 33 33 45 37 37 35 34 34 33 34 36 35 34 35 35 35 37 40 40 40 41 41 40 40 39
45 45 44 44 44 43 44 44 43 40 42 41 40 40 39 39 39 40 40 40 39 38 36 36 36 35 35 34 35 35 35 35 36 37 35 35 35 35 34 37 35 40 36 34 34 34 35 35 35 37 34 34 34 34 34 34 34 36 33 33 33 33 35 34 34 34 32 32 33 35 35 34 35 35 35 34 37 39 39 39 40 40 40 39 39
44 44 44 44 44 42 41 41 42 42 41 40 39 39 39 39 39 39 38 37 35 35 34 35 34 33 32 32 33 32 33 32 35 36 36 34 35 34 34 34 34 37 35 34 34 34 34 35 35 34 34 34 34 33 33 34 36 33 33 33 32 33 33 33 33 35 32 30 31 32 35 34 34 34 35 36 35 38 39 39 39 40 39 39 39
44 44 43 42 41 40 40 40 39 39 39 38 37 36 37 37 36 37 37 35 34 33 32 32 31 31 31 33 31 31 33 32 33 34 34 34 34 33 33 33 33 33 34 34 34 34 35 34 34 34 33 33 33 32 32 33 33 33 33 32 35 29 32 31 32 34 32 30 29 32 34 34 34 35 38 38 39 37 37 37 39 40 40 39 39
44 43 42 40 38 37 38 39 37 38 37 36 36 35 36 34 34 34 33 33 32 33 30 28 28 30 31 32 33 34 36 36 36 35 35 35 34 33 33 33 34 34 33 31 33 33 33 33 34 33 32 33 37 34 33 34 33 32 32 33 32 29 29 29 31 31 31 31 31 30 31 33 35 37 38 37 37 35 35 35 35 37 39 38 38
43 42 40 38 39 38 40 38 36 36 35 33 34 34 33 33 34 32 34 32 32 30 29 28 29 27 28 29 31 33 35 36 36 37 36 35 35 35 37 35 35 34 34 36 37 36 35 33 32 34 34 34 34 34 32 32 32 32 30 30 31 29 28 29 29 30 30 31 31 32 31 31 34 35 35 35 36 36 35 35 34 34 37 36 37
41 40 39 38 37 36 36 34 34 33 32 32 31 32 32 33 35 36 35 33 29 29 29 28 26 28 26 25 27 28 30 33 35 36 35 33 33 31 32 34 36 36 34 35 37 38 33 32 35 40 39 33 34 33 32 33 31 31 30 29 29 30 31 33 32 29 30 31 30 30 31 33 32 31 33 34 35 36 36 34 34 32 33 35 37
39 39 37 40 36 37 36 35 33 32 36 36 35 35 38 38 38 37 37 36 37 37 33 30 29 29 26 25 25 27 26 29 33 33 35 34 32 34 34 34 34 34 35 33 35 35 30 27 28 27 30 30 28 31 30 31 29 32 33 32 31 30 31 29 29 28 28 29 29 30 30 29 31 31 30 32 35 35 36 35 35 33 32 32 34
37 35 36 37 35 34 35 33 33 34 36 34 33 34 32 33 35 34 32 33 34 34 34 36 38 35 32 32 36 29 28 32 34 34 34 33 33 33 33 33 33 34 33 32 34 31 26 24 25 22 24 24 24 25 26 29 30 28 29 30 30 30 30 30 29 29 29 28 28 29 30 29 30 31 31 31 34 35 35 35 35 34 32 30 29
35 35 35 34 33 34 33 33 34 36 35 34 33 31 31 32 33 33 34 34 33 33 33 33 33 33 34 28 34 34 34 34 34 34 34 34 33 33 32 32 32 32 32 29 28 24 21 21 21 20 19 19 23 20 22 24 25 26 29 28 28 30 30 30 32 30 28 28 29 30 30 28 28 29 30 31 31 32 33 35 35 35 33 32 31
35 34 34 33 34 34 35 35 36 35 33 32 30 30 27 28 29 32 33 33 33 33 34 34 34 34 34 33 30 30 34 34 34 35 35 34 34 33 32 31 31 31 31 31 26 22 24 22 21 19 21 19 20 19 18 19 21 22 24 25 25 26 29 30 31 29 27 28 27 26 28 27 26 26 27 27 28 29 30 32 32 33 32 33 33
35 34 33 33 33 33 32 32 32 32 31 29 29 26 24 24 23 25 30 33 33 33 33 34 34 34 33 33 34 34 34 34 34 34 34 34 34 34 32 33 33 33 33 32 21 21 23 26 22 22 21 20 18 19 17 18 18 18 17 20 25 24 27 31 31 29 28 29 29 27 29 28 26 24 25 26 27 27 27 29 29 31 32 30 31
34 33 33 32 32 32 32 32 31 32 31 28 26 25 24 26 23 22 20 22 27 32 34 34 33 33 34 34 34 34 34 34 34 34 34 33 33 33 33 32 32 32 32 33 23 22 22 22 22 22 21 21 21 20 21 18 14 15 12 13 17 21 24 27 28 28 28 27 28 26 26 27 26 26 25 24 25 27 27 26 27 28 28 28 28
34 33 31 31 32 31 32 31 31 31 30 30 27 26 27 26 25 21 18 18 20 19 22 27 32 33 31 32 34 33 34 33 33 33 33 33 33 33 32 33 33 32 34 25 22 21 22 22 21 24 22 22 21 20 24 21 16 15 15 12 13 17 18 22 24 26 26 27 27 28 26 26 27 24 23 23 22 22 23 26 26 25 27 26 26
35 33 32 33 32 32 32 32 31 31 30 30 30 27 27 25 23 21 21 21 21 19 20 20 24 33 32 33 33 33 32 32 32 32 32 32 32 32 31 25 22 22 22 20 20 20 20 23 21 21 21 21 23 20 21 20 19 15 15 15 19 12 18 17 20 23 26 28 27 28 28 27 27 25 25 26 25 23 23 24 24 24 25 26 26
34 31 31 32 31 32 32 32 33 32 30 30 30 28 27 24 24 22 24 23 23 22 24 24 26 28 30 30 34 33 33 33 32 33 33 32 32 31 31 26 26 23 23 21 20 20 21 22 22 21 22 22 20 19 20 20 19 19 19 15 14 13 14 13 13 20 21 20 24 27 28 27 25 26 24 23 23 24 22 23 24 22 23 25 25
33 30 29 32 33 33 33 32 31 31 31 31 31 28 25 25 25 24 25 25 25 25 25 24 27 24 24 25 30 29 29 32 32 30 30 30 28 31 24 22 25 24 23 23 24 23 21 21 23 22 21 23 22 24 20 22 18 21 23 17 20 17 22 16 18 20 21 15 17 21 23 25 25 24 24 23 23 23 22 22 21 20 21 23 22
31 30 30 31 31 32 31 31 30 30 32 31 29 27 26 27 26 26 27 27 27 27 26 26 25 25 26 26 26 32 28 28 28 26 27 29 27 26 27 27 26 25 27 25 25 25 25 23 22 22 23 23 22 21 20 22 19 19 18 17 16 17 17 14 18 17 13 11 10 13 17 21 24 23 23 23 23 23 23 24 22 21 20 20 21
30 30 32 31 31 31 31 31 30 29 28 28 27 27 27 27 26 27 28 27 27 26 28 26 26 28 28 28 26 28 28 28 28 28 25 24 26 28 28 26 27 27 27 29 28 27 27 24 24 23 24 24 23 21 22 23 25 21 19 18 15 15 15 17 14 14 15 14 10 9 11 16 18 23 22 23 23 23 22 23 22 22 22 21 21
31 32 31 30 30 31 32 31 28 29 27 28 28 29 27 26 27 28 28 27 27 27 28 28 28 30 29 33 30 29 30 30 28 26 26 24 25 26 28 27 25 27 26 25 27 27 27 28 24 22 23 23 24 22 24 22 23 21 19 19 17 18 16 18 17 16 17 16 13 12 12 12 14 16 20 20 26 24 22 21 22 22 21 21 20
32 31 30 30 32 32 29 27 27 28 29 29 28 28 26 26 27 28 27 26 27 27 27 28 29 29 31 30 29 29 29 30 29 29 30 28 27 26 26 27 28 28 28 28 29 29 27 27 25 24 24 23 23 23 23 22 23 20 20 19 19 20 19 17 18 19 18 15 15 15 14 13 13 14 14 23 19 22 21 20 21 21 21 21 21
32 31 29 30 30 28 26 26 28 28 29 29 28 27 26 27 28 28 27 27 26 26 27 28 28 29 30 29 30 29 29 28 28 30 29 28 28 28 28 26 26 28 29 29 30 29 28 26 27 26 26 26 26 25 22 21 19 20 19 19 19 19 21 19 20 20 19 18 18 19 18 15 14 13 12 14 16 17 21 21 21 20 21 22 21
31 29 30 30 29 27 27 28 28 29 29 29 29 27 27 27 27 28 27 28 28 26 26 27 28 29 28 30 31 28 26 25 27 27 27 27 28 27 29 29 28 28 30 29 29 31 27 27 26 26 29 28 29 32 28 26 24 23 21 20 21 20 20 21 21 21 21 20 20 19 18 18 17 14 14 15 17 16 17 20 20 20 20 21 21
29 28 29 27 28 28 26 28 30 28 29 28 28 28 27 28 29 27 27 28 28 27 27 27 27 28 28 27 28 27 26 27 27 28 29 30 29 29 27 27 28 30 28 27 30 30 29 30 28 28 28 28 28 29 30 29 28 25 25 23 21 20 21 21 22 22 21 23 21 20 19 18 19 18 15 15 19 18 13 17 17 21 20 20 21
25 27 27 25 29 28 26 29 30 29 29 29 30 29 28 26 28 29 27 27 27 27 27 27 29 28 28 29 30 29 29 30 30 30 29 28 28 28 28 30 27 28 27 27 27 29 28 30 30 28 28 28 28 27 28 30 30 29 29 28 26 23 23 24 24 24 22 24 22 21 21 21 20 20 20 18 17 17 18 19 20 18 18 19 20
28 27 26 26 27 27 27 29 29 28 30 27 28 29 28 27 28 29 27 28 28 27 28 27 27 27 28 27 28 28 29 28 28 28 30 30 31 30 30 29 28 29 28 28 30 27 30 29 28 29 29 30 29 30 29 27 28 26 28 28 26 26 25 24 24 25 25 25 24 23 23 21 21 21 19 20 20 19 20 19 18 20 19 18 18
27 27 26 27 27 28 27 29 28 29 28 27 27 27 27 25 27 29 28 27 27 28 27 27 28 28 28 28 29 27 28 27 28 28 27 28 28 28 30 30 29 28 29 28 29 28 28 28 30 30 30 31 30 29 29 29 29 27 27 28 27 24 25 26 25 26 26 26 25 26 26 23 22 22 22 23 23 21 20 18 19 18 19 18 18
28 28 26 27 27 28 28 29 28 28 27 27 26 26 26 26 25 26 28 28 27 27 28 27 28 28 28 28 28 28 28 27 27 27 27 27 28 30 28 30 30 30 28 29 30 29 29 29 30 29 29 31 30 30 29 30 27 27 28 27 26 30 30 29 26 24 26 28 26 26 27 26 26 25 24 24 23 22 21 22 21 20 19 20 19
30 30 28 27 28 28 28 29 29 28 29 28 27 27 28 27 27 27 27 27 27 27 27 27 26 27 26 26 27 28 27 28 28 27 27 27 27 28 28 29 30 30 29 29 29 28 29 29 31 32 31 31 30 30 29 29 29 28 28 29 30 31 30 30 30 29 25 26 27 27 26 26 27 25 25 25 26 26 25 24 24 22 21 21 21
31 31 30 28 28 28 28 28 28 28 28 28 28 28 27 27 27 29 28 28 28 28 28 28 28 27 27 27 27 28 28 29 28 28 28 28 29 28 28 28 28 29 30 30 29 29 31 31 29 29 31 30 31 30 29 29 29 29 30 31 31 31 31 30 30 30 29 28 28 28 26 27 27 26 26 25 26 25 24 24 24 24 23 22 22